Carlsbad, NM

3:33 PM MDT on August 20, 2017 (GMT -0600)
Cavern City

Weather History for KCNM - February, 2013

Change the Weather History Date:

Friday, February 8, 2013

  Actual Average Record
Temperature  
Mean Temperature 47 °F -  
Max Temperature 60 °F 59 °F 84 °F (1957)
Min Temperature 34 °F 28 °F 10 °F (1971)
Degree Days  
Heating Degree Days 18    
Moisture  
Dew Point 25 °F    
Average Humidity 42    
Maximum Humidity 59    
Minimum Humidity 28    
Precipitation  
Precipitation 0.00 in - - ()
Sea Level Pressure  
Sea Level Pressure 30.02 in    
Wind  
Wind Speed 8 mph (SSE)    
Max Wind Speed 22 mph    
Max Gust Speed 28 mph    
Visibility 10 miles    
Events      
Averages and records for this station are not official NWS values.
T = Trace of Precipitation, MM = Missing Value Source: NWS Daily Summary

Daily Weather History Graph

Daily Weather History Graph

Search for Another Location

Airport or City:

Trip Planner

Search our weather history database for the weather conditions in past years. The results will help you decide how hot, cold, wet, or windy it might be!

Date:

Astronomy

Feb. 08, 2013 Rise Set
Actual Time 6:45 AM MST 5:37 PM MST
Civil Twilight 6:20 AM MST 6:02 PM MST
Nautical Twilight 5:51 AM MST 6:31 PM MST
Astronomical Twilight 5:22 AM MST 7:00 PM MST
Moon 5:13 AM MST (2/8) 4:14 PM MST (2/8)
Length of Visible Light 11h 42m
Length of Day
10h 51m
Waning Crescent, 3% of the Moon is Illuminated
Feb 8
Waning Crescent
Feb 10
New
Feb 17
First Quarter
Feb 25
Full
Mar 4
Last Quarter

Hourly Weather History & Observations

Time (MST) Temp. Windchill Dew Point Humidity Pressure Visibility Wind Dir Wind Speed Gust Speed Precip Events Conditions
12:53 AM 45.0 °F 42.6 °F 21.0 °F 39% 30.14 in 10.0 mi ESE 4.6 mph - N/A   Clear
1:53 AM 35.1 °F - 19.9 °F 54% 30.14 in 10.0 mi Calm Calm - N/A   Clear
2:53 AM 34.0 °F 27.2 °F 21.0 °F 59% 30.14 in 10.0 mi SW 8.1 mph - N/A   Clear
3:53 AM 37.0 °F 31.0 °F 21.9 °F 54% 30.14 in 10.0 mi South 8.1 mph - N/A   Clear
4:53 AM 37.9 °F 32.1 °F 21.9 °F 53% 30.13 in 10.0 mi South 8.1 mph - N/A   Clear
5:53 AM 35.1 °F 30.1 °F 21.9 °F 59% 30.16 in 10.0 mi South 5.8 mph - N/A   Clear
6:53 AM 37.0 °F 32.4 °F 23.0 °F 57% 30.16 in 10.0 mi SSE 5.8 mph - N/A   Clear
7:53 AM 44.1 °F 38.1 °F 26.1 °F 49% 30.17 in 10.0 mi SSE 11.5 mph - N/A   Clear
9:53 AM 50.0 °F - 28.0 °F 43% 30.14 in 10.0 mi SSE 13.8 mph 20.7 mph N/A   Clear
10:53 AM 53.6 °F - 26.6 °F 35% 30.18 in 10.0 mi SSE 15.0 mph 23.0 mph N/A   Clear
11:53 AM 55.9 °F - 28.0 °F 34% 30.07 in 9.0 mi SSE 17.3 mph 27.6 mph N/A   Clear
12:53 PM 57.0 °F - 27.0 °F 32% 30.01 in 10.0 mi SSE 21.9 mph 26.5 mph N/A   Clear
1:53 PM 59.0 °F - 26.1 °F 28% 29.97 in 10.0 mi SSE 18.4 mph 27.6 mph N/A   Clear
2:53 PM 60.1 °F - 27.0 °F 28% 29.94 in 10.0 mi SSE 16.1 mph 24.2 mph N/A   Clear
3:53 PM 59.0 °F - 27.0 °F 29% 29.92 in 10.0 mi SSE 17.3 mph 24.2 mph N/A   Clear
4:53 PM 57.9 °F - 27.0 °F 31% 29.91 in 10.0 mi SSE 15.0 mph 23.0 mph N/A   Clear
5:53 PM 54.0 °F - 26.1 °F 34% 29.91 in 10.0 mi SE 6.9 mph - N/A   Clear
6:53 PM 48.9 °F - 26.1 °F 41% 29.91 in 10.0 mi SE 5.8 mph - N/A   Clear
7:53 PM 46.9 °F - 25.0 °F 42% 29.90 in 10.0 mi Calm Calm - N/A   Clear
8:53 PM 48.9 °F - 26.1 °F 41% 29.88 in 10.0 mi SSE 9.2 mph - N/A   Clear
9:53 PM 48.9 °F - 25.0 °F 39% 29.86 in 10.0 mi South 3.5 mph - N/A   Clear
10:53 PM 48.9 °F - 27.0 °F 43% 29.84 in 10.0 mi SSE 3.5 mph - N/A   Clear
11:53 PM 46.9 °F - 28.9 °F 50% 29.81 in 10.0 mi SE 3.5 mph - N/A   Clear